When you browse on this site, cookies collect data to enhance your experience and personalize the content and advertising you see.
Visit our Privacy Policy to learn more. By continuing to use the site, you agree to this use of cookies and data.
EN

Hourly Weather Alifanov

Today, 13 August, Thursday

Time Temperature Precipitation Wind Pressure Humidity
00:00 +20°C° 0.7 mm 3 mps 752 mmHg 79%
01:00 +19°C° 0 mm 3 mps 752 mmHg 81%
02:00 +19°C° 0 mm 3 mps 752 mmHg 84%
03:00 +18°C° 0 mm 2 mps 752 mmHg 86%
04:00 +18°C° 0 mm 3 mps 752 mmHg 85%
05:00 +18°C° 0 mm 3 mps 752 mmHg 83%
06:00 +17°C° 0 mm 3 mps 753 mmHg 82%
07:00 +19°C° 0 mm 4 mps 753 mmHg 72%
08:00 +20°C° 0 mm 4 mps 753 mmHg 62%
09:00 +22°C° 0 mm 4 mps 753 mmHg 52%
10:00 +23°C° 0 mm 4 mps 753 mmHg 47%
11:00 +23°C° 0 mm 4 mps 753 mmHg 43%
12:00 +25°C° 0 mm 4 mps 753 mmHg 38%
13:00 +26°C° 0 mm 4 mps 753 mmHg 36%
14:00 +26°C° 0 mm 4 mps 753 mmHg 34%
15:00 +26°C° 0 mm 4 mps 753 mmHg 32%
16:00 +26°C° 0 mm 4 mps 753 mmHg 34%
17:00 +25°C° 0 mm 5 mps 753 mmHg 37%
18:00 +25°C° 0 mm 5 mps 753 mmHg 39%
19:00 +22°C° 0 mm 5 mps 753 mmHg 44%
20:00 +21°C° 0 mm 4 mps 753 mmHg 48%
21:00 +19°C° 0 mm 4 mps 753 mmHg 53%
22:00 +18°C° 0 mm 4 mps 754 mmHg 57%
23:00 +17°C° 0 mm 3 mps 754 mmHg 62%

Tomorrow, 14 August, Friday

Time Temperature Precipitation Wind Pressure Humidity
00:00 +17°C° 0 mm 3 mps 754 mmHg 66%
01:00 +16°C° 0 mm 3 mps 754 mmHg 68%
02:00 +14°C° 0 mm 3 mps 754 mmHg 71%
03:00 +14°C° 0 mm 3 mps 754 mmHg 73%
04:00 +14°C° 0 mm 3 mps 754 mmHg 74%
05:00 +14°C° 0 mm 3 mps 754 mmHg 76%
06:00 +13°C° 0 mm 3 mps 755 mmHg 77%
07:00 +16°C° 0 mm 3 mps 754 mmHg 69%
08:00 +18°C° 0 mm 4 mps 754 mmHg 61%
09:00 +20°C° 0 mm 4 mps 754 mmHg 52%
10:00 +22°C° 0 mm 5 mps 754 mmHg 47%
11:00 +23°C° 0 mm 5 mps 754 mmHg 42%
12:00 +25°C° 0 mm 5 mps 754 mmHg 37%
13:00 +25°C° 0 mm 5 mps 754 mmHg 38%
14:00 +23°C° 0 mm 5 mps 754 mmHg 38%
15:00 +23°C° 0 mm 5 mps 754 mmHg 39%
16:00 +23°C° 0 mm 4 mps 754 mmHg 40%
17:00 +23°C° 0 mm 4 mps 754 mmHg 41%
18:00 +22°C° 0 mm 4 mps 754 mmHg 42%
19:00 +21°C° 0 mm 3 mps 754 mmHg 47%
20:00 +20°C° 0 mm 3 mps 754 mmHg 52%
21:00 +18°C° 0 mm 2 mps 754 mmHg 57%
22:00 +18°C° 0 mm 2 mps 754 mmHg 61%
23:00 +17°C° 0 mm 2 mps 755 mmHg 65%

Day after tomorrow, 15 August, Saturday

Time Temperature Precipitation Wind Pressure Humidity
00:00 +16°C° 0 mm 2 mps 755 mmHg 69%
01:00 +15°C° 0 mm 2 mps 755 mmHg 70%
02:00 +15°C° 0 mm 2 mps 755 mmHg 72%
03:00 +14°C° 0 mm 2 mps 755 mmHg 74%
04:00 +13°C° 0 mm 3 mps 755 mmHg 73%
05:00 +13°C° 0 mm 3 mps 756 mmHg 73%
06:00 +12°C° 0 mm 3 mps 756 mmHg 72%
07:00 +14°C° 0 mm 4 mps 756 mmHg 65%
08:00 +17°C° 0 mm 4 mps 756 mmHg 58%
09:00 +17°C° 0 mm 5 mps 756 mmHg 51%
10:00 +20°C° 0 mm 5 mps 756 mmHg 46%
11:00 +21°C° 0 mm 5 mps 756 mmHg 41%
12:00 +22°C° 0 mm 5 mps 756 mmHg 36%
13:00 +22°C° 0 mm 5 mps 756 mmHg 36%
14:00 +22°C° 0 mm 5 mps 756 mmHg 37%
15:00 +22°C° 0 mm 5 mps 756 mmHg 37%
16:00 +22°C° 0 mm 5 mps 756 mmHg 38%
17:00 +22°C° 0 mm 5 mps 756 mmHg 38%
18:00 +21°C° 0 mm 5 mps 756 mmHg 39%
19:00 +20°C° 0 mm 4 mps 756 mmHg 43%
20:00 +18°C° 0 mm 3 mps 757 mmHg 47%
21:00 +17°C° 0 mm 2 mps 757 mmHg 51%
22:00 +16°C° 0 mm 2 mps 757 mmHg 52%
23:00 +16°C° 0 mm 2 mps 757 mmHg 54%

16 August, Sunday

Time Temperature Precipitation Wind Pressure Humidity
00:00 +15°C° 0 mm 2 mps 757 mmHg 56%
01:00 +15°C° 0 mm 2 mps 757 mmHg 58%
02:00 +14°C° 0 mm 2 mps 757 mmHg 60%
03:00 +14°C° 0 mm 2 mps 757 mmHg 62%
04:00 +14°C° 0 mm 2 mps 757 mmHg 63%
05:00 +14°C° 0 mm 2 mps 757 mmHg 65%
06:00 +14°C° 0 mm 2 mps 757 mmHg 67%
07:00 +16°C° 0 mm 2 mps 757 mmHg 61%
08:00 +18°C° 0 mm 3 mps 757 mmHg 55%
09:00 +20°C° 0 mm 3 mps 757 mmHg 49%
10:00 +22°C° 0 mm 3 mps 757 mmHg 45%
11:00 +23°C° 0 mm 4 mps 757 mmHg 41%
12:00 +25°C° 0 mm 4 mps 757 mmHg 37%
13:00 +25°C° 0 mm 4 mps 757 mmHg 36%
14:00 +25°C° 0 mm 4 mps 757 mmHg 35%
15:00 +26°C° 0 mm 3 mps 757 mmHg 34%
16:00 +25°C° 0 mm 3 mps 756 mmHg 36%
17:00 +25°C° 0 mm 3 mps 756 mmHg 38%
18:00 +24°C° 0 mm 3 mps 756 mmHg 39%
19:00 +22°C° 0 mm 3 mps 756 mmHg 44%
20:00 +20°C° 0 mm 3 mps 757 mmHg 49%
21:00 +19°C° 0 mm 2 mps 757 mmHg 54%
22:00 +18°C° 0 mm 2 mps 757 mmHg 57%
23:00 +18°C° 0 mm 2 mps 757 mmHg 61%

17 August, Monday

Time Temperature Precipitation Wind Pressure Humidity
00:00 +18°C° 0 mm 1 mps 757 mmHg 64%
01:00 +18°C° 0 mm 1 mps 757 mmHg 66%
02:00 +17°C° 0 mm 2 mps 757 mmHg 68%
03:00 +16°C° 0 mm 2 mps 757 mmHg 70%
04:00 +16°C° 0 mm 2 mps 757 mmHg 71%
05:00 +16°C° 0 mm 2 mps 757 mmHg 73%
06:00 +16°C° 0 mm 2 mps 757 mmHg 75%
07:00 +18°C° 0 mm 2 mps 757 mmHg 69%
08:00 +21°C° 0 mm 2 mps 757 mmHg 62%
09:00 +24°C° 0 mm 2 mps 757 mmHg 56%
10:00 +25°C° 0 mm 3 mps 757 mmHg 50%
11:00 +27°C° 0 mm 3 mps 756 mmHg 44%
12:00 +28°C° 0 mm 3 mps 756 mmHg 39%
13:00 +29°C° 0 mm 3 mps 756 mmHg 38%
14:00 +29°C° 0 mm 3 mps 756 mmHg 37%
15:00 +30°C° 0 mm 3 mps 755 mmHg 36%
16:00 +30°C° 0 mm 3 mps 755 mmHg 37%
17:00 +30°C° 0 mm 3 mps 755 mmHg 38%
18:00 +29°C° 0 mm 3 mps 755 mmHg 39%
19:00 +28°C° 0 mm 2 mps 755 mmHg 43%
20:00 +26°C° 0 mm 1 mps 755 mmHg 46%
21:00 +25°C° 0 mm 1 mps 755 mmHg 50%
22:00 +24°C° 0 mm 1 mps 755 mmHg 52%
23:00 +24°C° 0 mm 1 mps 755 mmHg 54%

18 August, Tuesday

Time Temperature Precipitation Wind Pressure Humidity
00:00 +23°C° 0 mm 1 mps 755 mmHg 57%
01:00 +22°C° 0 mm 1 mps 755 mmHg 58%
02:00 +22°C° 0 mm 1 mps 755 mmHg 60%
03:00 +21°C° 0 mm 1 mps 755 mmHg 62%
04:00 +21°C° 0 mm 1 mps 754 mmHg 63%
05:00 +21°C° 0 mm 1 mps 754 mmHg 64%
06:00 +21°C° 0 mm 1 mps 754 mmHg 65%
07:00 +23°C° 0 mm 1 mps 754 mmHg 59%
08:00 +26°C° 0 mm 1 mps 754 mmHg 52%
09:00 +28°C° 0 mm 1 mps 754 mmHg 46%
10:00 +29°C° 0 mm 1 mps 754 mmHg 42%
11:00 +30°C° 0 mm 1 mps 754 mmHg 38%
12:00 +31°C° 0 mm 1 mps 753 mmHg 33%
13:00 +32°C° 0 mm 1 mps 753 mmHg 32%
14:00 +32°C° 0 mm 2 mps 753 mmHg 31%
15:00 +32°C° 0 mm 2 mps 752 mmHg 30%
16:00 +32°C° 0 mm 2 mps 752 mmHg 32%
17:00 +31°C° 0 mm 3 mps 752 mmHg 34%
18:00 +30°C° 0 mm 3 mps 752 mmHg 36%
19:00 +29°C° 0 mm 3 mps 752 mmHg 39%
20:00 +28°C° 0 mm 3 mps 752 mmHg 43%
21:00 +26°C° 0 mm 2 mps 752 mmHg 46%
22:00 +26°C° 0 mm 2 mps 752 mmHg 48%
23:00 +25°C° 0 mm 2 mps 752 mmHg 49%
Show more